sat.trackr.live / text

‹ back to catalog

STARLINK-11743 [DTC]

NORAD 64379 · 2025-127K

PAYLOAD ACTIVE UNKNOWN

§ Identity

Operator
Country
US
Launch date
2025-06-13
Launch site
AFETR
Launch vehicle
Mass (kg)
RCS (m²)

Purposes: comms

External: N2YO · Heavens-Above · Gunter

§ Orbital elements

Epoch: 2026-05-24T23:01:50.448288Z

Period
91.66 min
Inclination
43.0023°
Eccentricity
0.0004113
Mean motion
15.70946048 rev/d
Perigee alt
353.4 km
Apogee alt
359.0 km
Semi-major
6,734.3 km
B*
1.4363e-3
RAAN
345.1652°
Arg perigee
265.2443°
Mean anomaly
94.7955°
Rev number
5,549

§ Raw data

STARLINK-11743 [DTC]1 64379U 25127K   26144.95961167  .00188990  00000+0  14363-2 0  99902 64379  43.0023 345.1652 0004113 265.2443  94.7955 15.70946048 55490

JSON: /api/v1/satellites/64379 · /tle

For live sub-satellite position, see the globe view (requires WebGL).

§ Visibility from observer

Set your observer location to see the next 7 days of passes ≥ 10°. The values pass through the URL so the page stays shareable.

No JS? Fill the form by hand. The geolocation button needs JavaScript.